Miscellaneous Local Product
Issued by NWS North Platte, NE

Home | Current Version | Previous Version | Text Only | Print | Product List | Glossary On
Versions: 1 2 3 4 5 6 7 8 9 10 11 12 13 14 15 16 17 18 19 20 21 22 23 24 25 26 27 28 29 30 31 32 33 34 35 36 37 38 39 40 41 42 43 44 45 46 47 48 49 50
000
AXUS43 KLBF 022110
MISLBF


WESTERN AND NORTH CENTRAL NEBRASKA HOURLY WEATHER ROUNDUP
NATIONAL WEATHER SERVICE NORTH PLATTE NE
300 PM CST MON MAR 02 2015

***STATIONS NOT REPORTING VARIABLES SUCH AS SKY/WEATHER OR
PRESSURE ARE PROVIDED BY THE NEBRASKA DEPARTMENT OF
ROADS...RAWS...AND APRS NETWORKS...AND ARE NOT UNDER
NATIONAL WEATHER SERVICE QUALITY CONTROL***

...OBSERVATIONS IN AND NEAR THE EASTERN PANHANDLE OF NEBRASKA...

CITY           SKY/WX    TMP DP  RH WIND       PRES   REMARKS
PINE RIDGE     PTSUNNY   44  21  40 S21G26    29.79F
CHADRON        CLOUDY    44  26  49 SW14      29.77F
ALLIANCE       PTSUNNY   41  22  46 S18G28    29.79F
SIDNEY         CLOUDY    36  24  62 S17       29.80F WCI  26
WHITECLAY        N/A     39  19  45 S17         N/A  WCI  30
CRESCENT LAKE    N/A     33  20  59 S13G21      N/A  WCI  24
LISCO            N/A     39  20  46 E18         N/A  WCI  30
BIG SPRINGS      N/A     33  24  69 S14         N/A  WCI  23
LEWELLEN         N/A     32  20  61 S15         N/A  WCI  22
$$

...OBSERVATIONS IN NORTH CENTRAL NEBRASKA...

CITY           SKY/WX    TMP DP  RH WIND       PRES   REMARKS
VALENTINE      PTSUNNY   40  10  29 S24G33    29.88F WCI  29
THEDFORD       MOSUNNY   40  19  42 S28G33    29.91F WCI  29
AINSWORTH      PTSUNNY   40  13  32 S26G35    29.92F WCI  29
O`NEILL        CLOUDY    40  16  36 S22G36    30.01F WCI  31
ORD            CLOUDY    39  14  36 S24G37    30.02F WCI  28
BROKEN BOW     CLOUDY    38  15  39 S26G40    29.98F WCI  26
BROWNLEE         N/A     40  13  32 S30         N/A  WCI  29
SPRINGVIEW       N/A     40  17  40 S14G29      N/A  WCI  32
BREWSTER         N/A     40  13  33 S25         N/A  WCI  29
ROSE             N/A     41  21  43 SE21        N/A
NEWPORT          N/A     39  16  38 S23         N/A  WCI  29
SARGENT          N/A     37  17  45 SE9         N/A  WCI  30
COMSTOCK         N/A     40  16  37 S23         N/A  WCI  30
CHAMBERS         N/A     42  18  38 S22         N/A
EWING            N/A     40  20  44 S16G25      N/A  WCI  31
$$

...OBSERVATIONS IN SOUTHWEST NEBRASKA AND FAR NORTHEAST COLORADO...

CITY           SKY/WX    TMP DP  RH WIND       PRES   REMARKS
WRAY           CLOUDY    32  25  75 S20G25    29.89F WCI  21
IMPERIAL         N/A     32  20  61 S22G30    29.91F WCI  19
OGALLALA       CLOUDY    33  22  63 S18G24    29.90F WCI  22
NORTH PLATTE   PTSUNNY   37  19  48 S23G31    29.93F WCI  26
MCCOOK         CLOUDY    39  20  46 S22G30    29.98F WCI  29
LEXINGTON      CLOUDY    38  18  44 S25G36    30.01F WCI  26
PAXTON           N/A     36  24  60 S20         N/A  WCI  25
BRADY            N/A     37  20  50 CALM        N/A
GOTHENBURG       N/A     35  17  49 S20         N/A  WCI  24
CALLAWAY         N/A     38  21  51 S29         N/A  WCI  26
$$

...NORTH PLATTE AREA...

CITY           SKY/WX    TMP DP  RH WIND       PRES   REMARKS
AIRPORT        PTSUNNY   37  19  48 S23G31    29.93F WCI  26
DOWNTOWN         N/A     36  21  54 S15G24      N/A  WCI  27
$$

...SOME WEATHER OBSERVATIONS FROM AROUND THE REGION...

CITY           SKY/WX    TMP DP  RH WIND       PRES   REMARKS
DENVER         PTSUNNY   31  22  69 N5        29.73F HAZE    WCI  26
LARAMIE        PTSUNNY   43  31  62 SW17      29.66F
CHEYENNE       MOSUNNY   35  24  64 S8        29.70F WCI  29
SCOTTSBLUFF    MOSUNNY   46  24  42 SE12G20   29.75F
RAPID CITY     CLOUDY    47  23  38 S12       29.73F
PIERRE         MOSUNNY   47  16  29 S24G32    29.86F
WINNER         FAIR      44  11  26 S24G37    29.92F
SIOUX FALLS    CLOUDY    29  16  58 S15       30.15F WCI  18
OMAHA          PTSUNNY   40  19  43 S17G26    30.22F WCI  31
GRAND ISLAND   PTSUNNY   43  16  33 S22G33    30.09F
KANSAS CITY    CLOUDY    37  18  46 SE16      30.29F WCI  28
WICHITA        CLOUDY    35  22  58 S13       30.20F WCI  26
HAYS           CLOUDY    34  16  47 S22G28    30.10F WCI  22
LIBERAL        CLOUDY    34  27  75 S21       30.06F WCI  22
GOODLAND       CLOUDY    30  25  81 S22       29.91F WCI  17
$$



USA.gov is the U.S. government's official web portal to all federal, state and local government web resources and services.